Location: Borowce
(50.8255°N, 19.6209°E)
Time: 21:32:32
(UTC+00:00)

Cosmos 1802 Rocket - Pass Details

Date: 19 May 2025
Orbit: 954 x 1010 km, 82.9° (Epoch: 16 June)

Event Time Altitude Azimuth Distance (km) Brightness Sun altitude
Rises 22:51:06 0° 351° (N) 3,705 8.5 -19.1°
Reaches altitude 10° 22:53:39 10° 355° (N) 2,760 7.6 -19.1°
Maximum altitude 22:59:57 64° 76° (ENE) 1,104 4.3 -19.0°
Enters shadow 23:03:51 24° 152° (SSE) 1,926 5.1 -19.0°
